Showing default

QIANFAN-37, 62238

Orbit data source: Space-Track

QIANFAN-37, 62238 is a Chinese payload satellite in LEO that was launched on Thu, 05 Dec 2024 UTC via a CHANG ZHENG 6A launch vehicle from the Taiyaun Space Center, China (TSC). Payload-class satellites include a variety of spacecraft equipped with specific instruments for various scientific and technological missions. These include communications satellites like Starlink; space stations such as the ISS; scientific satellites like the Hubble; Earth observation satellites from companies like Planet Labs, Umbra, and HawkEye 360; GPS; miniature CubeSats for education and research; and military/defense satellites.

Loading next visibility...
Identifier
62238, 2024-232B
Orbit
LEO
Country
Flag of CNCN / PRC
Related business
Manufacturer
SECM
Mission
Operational Commercial Communications
Bus & Motor
QIANFAN, Unknown motor
Mass
267 kg wet, ~267 kg dry
Launch date (UTC)
2024-12-05 (2 years ago)
Launch vehicle
CHANG ZHENG 6A
Launch site
Taiyaun Space Center, China (TSC)
Object type
Payload
Rocket body
Debris
Shape & HBR
Box + 1 Pan, 5.0 m
Radar Cross Section
13.200 m², Large (>1 m²)

Expand to show TLE details & history
Last TLE update: 9 hours ago

TLE from 9 hours ago
0 QIANFAN-37
1 62238U 24232B   26246.84178101  .00000093  00000-0  12533-3 0  9993
2 62238  89.0136  14.6985 0002360  90.1138 270.0283 13.51028070134968
Epoch: 2026-09-03T20:12Z
TLE epoch observation values (Epoch: 2026-09-03T20:12:09.879Z)
Latitude
-0.00007°
Longitude
88.68317°
Altitude
1,071.431 km
Speed
7.316 km/s
True Right ascension
00h 58m 47s
True Declination
0° 00' 00"
Sunlit
Object was in full shadow at epoch
Visualization orbit readout
Latitude
Unknown
Longitude
Unknown
Altitude
Unknown
Speed
Unknown
Apparent Right ascension
Unknown
Apparent Declination
Unknown
Sunlit
N/A
Visualization observer readout
Local Sidereal Time
20:54:43
Azimuth
Unknown
Elevation
Unknown
Doppler factor
Unknown
Orbital elements
Apogee altitude
1,067.286 km
Perigee altitude
1,063.773 km
Semi-major axis
7,443.666 km
Eccentricity
0.00024
Inclination
89.0136°
RAAN
14.6985°
Arg. of periapsis
90.1138°
True anomaly
270.00126°
Mean anomaly
270.0283°
Eccentric anomaly
270.01478°
Mean motion
3.37958 °/min
Orbital period
106.52 mins
BSTAR
0.00012533
Loading maneuver chart data...
Computing Atmospheric mass density...
Loading historical data...
Loading historical data...
Loading historical data...
Loading historical data...
Loading historical data...
Loading historical data...
Loading historical data...

Documentation

Showing up to 5 results
|